This is the latest recevied weather packets stored in our database for station/object N8SHA. If no packets are shown the sender has not sent any weather packets the latest 10 day(s).
| Time | Temp. | Humidity | Pressure | Rain* | Wind** | Luminosity | Snow |
|---|---|---|---|---|---|---|---|
| 1777833533 | 18.33° C | 40% | 1010.2 hPa | 0 mm | - | 901 W/m² | - |
| 1777833230 | 18.33° C | 42% | 1009.8 hPa | 0 mm | - | 945 W/m² | - |
| 1777832927 | 17.22° C | 45% | 1010.3 hPa | 0 mm | - | 826 W/m² | - |
| 1777832626 | 16.11° C | 44% | 1010.3 hPa | 0 mm | - | 936 W/m² | - |
| 1777832322 | 16.67° C | 43% | 1010.4 hPa | 0 mm | - | 443 W/m² | - |
| 1777832020 | 17.78° C | 42% | 1010.4 hPa | 0 mm | - | 303 W/m² | - |
| 1777831716 | 17.22° C | 43% | 1010.4 hPa | 0 mm | - | 471 W/m² | - |
| 1777831414 | 17.22° C | 44% | 1010.7 hPa | 0 mm | - | 700 W/m² | - |
| 1777831110 | 16.67° C | 44% | 1010.5 hPa | 0 mm | - | 926 W/m² | - |
| 1777830809 | 16.67° C | 44% | 1010.7 hPa | 0 mm | - | 764 W/m² | - |
| 1777830503 | 16.67° C | 46% | 1010.9 hPa | 0 mm | - | 626 W/m² | - |
| 1777830202 | 16.11° C | 44% | 1010.8 hPa | 0 mm | - | 354 W/m² | - |
| 1777829897 | 16.67° C | 44% | 1010.9 hPa | 0 mm | - | 873 W/m² | - |
| 1777829594 | 16.67° C | 43% | 1011.1 hPa | 0 mm | - | 443 W/m² | - |
| 1777829291 | 17.22° C | 43% | 1011 hPa | 0 mm | - | 944 W/m² | - |
| 1777828988 | 16.11° C | 44% | 1011.1 hPa | 0 mm | - | 1019 W/m² | - |
| 1777828684 | 15.56° C | 44% | 1011.3 hPa | 0 mm | - | 1014 W/m² | - |
| 1777828381 | 15° C | 46% | 1011.1 hPa | 0 mm | - | 396 W/m² | - |
| 1777828078 | 15° C | 45% | 1011.5 hPa | 0 mm | - | 488 W/m² | - |
| 1777827775 | 15° C | 45% | 1011.3 hPa | 0 mm | - | 368 W/m² | - |
| 1777827472 | 15° C | 46% | 1011.4 hPa | 0 mm | - | 340 W/m² | - |
| 1777827169 | 15° C | 45% | 1011.4 hPa | 0 mm | - | 406 W/m² | - |
| 1777826865 | 14.44° C | 46% | 1011.7 hPa | 0 mm | - | 500 W/m² | - |
| 1777826563 | 13.89° C | 47% | 1011.7 hPa | 0 mm | - | 535 W/m² | - |
| 1777826258 | 13.89° C | 47% | 1011.8 hPa | 0 mm | - | 345 W/m² | - |
* Rain latest hour (hover to see other rain measurements)
** Current wind speed in m/s (hover to see current wind gust speed)